Dewpoint
79 79 78 77 74 71 73 68 55 59 52 40 41 42 41 46 49 50 52 54 54 57 59 61 58 58 61 61 63 63 64 61 63 53 53 66 71 71 73 73 74 73 73 75 75 74 74 74 74 75 74 74 75 75 76 76 76 77 77 77 77 76 76 76 76 76 76 76 76 76 76 76 76 76 75 75 75 76 76 76 76 76 76 76 76 76 76 76 76 76 76 76 76 76 76 76 76
78 78 77 75 73 71 65 67 57 55 50 40 40 40 41 44 48 50 52 53 54 56 59 61 62 63 63 63 62 60 63 65 66 66 69 71 71 72 73 74 73 73 74 74 75 75 75 74 74 75 75 74 74 76 76 76 77 77 77 77 77 77 77 77 77 77 77 76 76 76 75 75 75 75 75 75 75 76 76 76 76 76 76 76 76 76 76 76 76 76 76 76 75 75 76 76 77
74 74 73 73 72 70 63 62 52 43 40 38 39 40 44 48 50 52 53 55 57 58 59 59 60 60 60 59 59 60 60 66 67 68 68 71 70 71 73 73 73 74 74 75 74 75 74 75 75 75 75 75 75 75 77 77 77 77 77 77 76 77 77 77 77 77 76 76 76 76 75 75 75 74 75 75 76 76 76 76 76 76 76 76 75 76 76 76 76 76 76 75 75 76 76 76 76
69 69 68 71 66 66 60 59 56 43 39 38 34 41 47 48 50 51 53 55 56 57 56 57 58 60 60 60 61 63 64 65 67 67 68 69 69 72 73 73 75 74 75 74 75 75 75 75 75 75 76 76 76 76 77 78 78 77 77 78 78 78 78 78 77 76 76 75 75 75 75 75 75 75 75 75 76 76 76 76 76 76 75 75 75 75 75 75 76 76 76 75 75 75 75 76 76
69 70 66 68 64 61 59 58 51 45 38 40 35 37 46 49 49 50 51 53 55 57 58 58 59 61 61 60 61 61 64 66 67 68 69 70 71 72 73 74 74 74 74 74 75 75 76 76 77 77 77 77 77 77 78 77 77 77 76 77 77 77 77 77 76 76 75 75 75 75 75 75 75 75 75 75 75 75 75 75 75 75 75 75 75 75 74 74 75 75 75 75 74 74 75 75 75
69 67 67 66 62 62 61 43 39 37 39 40 37 39 46 50 51 52 53 54 54 55 57 58 58 59 60 62 63 63 65 63 66 68 69 69 71 72 73 74 73 74 74 75 75 75 76 77 77 77 77 77 77 77 77 77 77 77 77 77 77 77 77 76 76 76 76 76 75 75 75 75 75 75 75 75 75 75 75 75 75 75 75 75 75 75 74 74 74 74 73 74 74 74 74 74 75
65 64 64 66 63 63 54 39 37 34 35 38 40 45 50 52 53 53 54 55 58 59 60 60 61 61 61 63 64 65 67 66 65 66 68 71 72 72 73 73 74 74 74 74 75 75 76 77 78 78 78 77 77 77 77 77 77 77 76 76 76 76 76 76 76 76 76 76 75 75 75 75 75 75 75 75 75 75 75 75 75 75 75 75 74 74 74 74 74 73 73 73 72 73 75 75 75
71 60 62 53 54 53 44 40 39 43 36 36 40 44 48 52 53 52 53 53 54 56 59 61 62 62 61 64 62 65 65 66 66 67 70 71 72 72 72 72 73 74 74 74 74 75 78 77 78 78 78 77 77 77 77 77 76 76 76 76 76 76 76 76 76 76 76 76 76 75 75 75 75 75 74 75 75 75 75 75 75 74 74 73 73 73 73 73 74 73 73 72 72 71 71 72 73
64 62 59 54 46 45 42 41 40 39 34 34 35 47 50 51 52 54 55 56 57 59 60 60 60 58 62 63 63 66 65 66 68 71 71 71 71 71 71 72 73 74 74 74 74 76 76 77 78 78 78 78 77 77 76 77 76 76 76 76 76 76 76 75 75 76 76 76 76 75 75 75 75 75 75 74 74 74 74 74 74 74 73 73 73 73 73 73 73 74 73 73 73 72 72 72 72
61 58 50 52 48 41 42 39 31 30 33 36 39 43 47 51 53 54 55 55 57 59 60 61 61 61 63 63 64 65 65 68 69 69 70 70 70 70 71 72 73 73 74 74 75 76 77 77 77 78 78 78 78 78 77 77 77 77 76 76 76 76 76 76 75 75 75 75 75 75 75 74 74 74 74 74 74 74 74 74 73 73 72 72 73 73 73 73 73 73 74 74 75 74 74 74 73
53 57 55 46 43 39 36 35 35 36 40 43 44 47 51 54 55 55 56 58 60 61 62 63 62 62 62 63 65 68 68 68 68 68 69 70 70 70 71 73 73 74 74 75 76 76 76 76 78 77 77 78 77 77 77 77 77 76 76 76 76 76 76 76 76 75 75 75 75 74 74 74 74 74 74 74 74 74 74 73 73 73 72 72 73 74 73 73 73 74 74 74 75 75 75 75 75
49 47 52 47 44 41 39 36 34 38 40 41 42 46 51 54 55 55 57 58 60 61 61 61 61 64 63 63 65 67 68 68 68 69 69 70 69 70 71 72 73 74 75 75 76 76 76 76 76 77 77 77 77 77 77 77 76 76 76 76 76 76 76 76 75 75 75 75 75 75 75 76 77 77 77 76 74 73 73 72 72 73 73 73 72 74 74 74 74 74 74 74 75 75 75 75 75
50 49 49 46 44 48 40 39 40 37 35 38 40 44 49 53 55 55 56 58 59 58 57 62 63 63 61 63 66 67 67 68 69 69 69 69 69 70 71 72 74 74 75 76 76 75 76 76 76 76 76 77 77 77 77 76 76 76 76 76 76 76 76 76 76 77 77 77 77 77 76 76 76 76 76 76 76 76 74 72 72 72 72 72 71 72 74 74 74 74 74 75 74 74 75 75 75
49 47 49 46 48 43 43 41 40 38 35 36 40 43 46 51 55 55 56 55 56 57 61 62 62 63 62 64 66 65 67 68 68 69 69 69 69 69 71 72 73 74 75 75 75 75 75 75 76 76 76 76 76 76 76 76 76 76 76 76 76 76 76 76 76 77 76 76 76 76 76 75 75 75 75 75 75 76 76 76 75 72 72 72 71 71 72 73 74 74 74 74 75 75 75 75 76
42 48 49 47 44 40 40 39 37 36 35 38 40 43 45 50 54 55 55 55 56 59 60 61 62 61 61 62 63 65 65 67 68 68 68 68 69 70 71 71 72 74 74 75 75 75 75 75 75 76 76 76 76 76 76 76 76 76 76 76 76 76 76 76 76 77 76 76 76 75 75 75 75 75 74 75 74 75 76 76 76 76 74 72 71 71 71 71 72 72 74 74 74 75 76 76 76
43 42 44 44 40 39 38 39 39 36 36 40 42 44 44 47 51 52 54 56 57 59 60 59 62 59 62 62 64 65 66 67 68 67 67 68 69 70 71 72 73 73 74 75 75 75 75 76 76 76 76 76 76 76 76 76 76 76 76 76 76 76 76 77 77 77 76 76 75 76 76 75 75 74 74 74 75 75 75 76 76 76 75 74 73 72 72 72 73 72 72 73 74 76 76 76 76
40 39 40 41 39 38 37 39 37 36 39 41 43 44 44 45 47 50 54 56 56 57 58 60 58 62 62 62 64 65 66 67 67 66 67 69 69 70 71 72 73 73 74 75 75 75 75 76 76 76 76 76 76 76 76 76 76 76 76 76 76 76 77 77 77 76 76 76 76 76 76 75 74 74 74 74 75 75 76 76 76 76 76 76 76 75 73 73 73 73 73 76 76 75 75 76 75
37 40 38 41 37 37 38 39 40 41 39 40 41 43 45 45 47 52 55 55 56 56 57 59 60 60 61 62 64 65 65 65 65 66 67 68 69 69 70 71 72 72 73 73 74 74 75 76 76 76 76 76 76 76 76 76 77 76 75 75 76 76 76 77 76 76 77 75 76 76 74 74 73 73 73 76 75 75 76 75 75 76 76 76 75 75 76 76 74 74 75 76 76 76 75 74 74
41 40 35 36 36 37 40 40 41 40 40 40 41 43 45 45 48 52 53 53 54 56 57 58 59 60 61 61 63 64 64 64 65 66 66 67 68 69 69 70 71 72 72 73 73 74 75 75 75 76 75 75 75 76 76 76 76 75 76 76 76 77 77 77 76 77 75 75 75 75 75 74 74 74 74 75 76 76 76 76 75 76 76 76 76 76 76 76 75 75 75 76 76 75 74 72 71
40 38 35 34 35 37 40 41 40 40 40 40 40 42 44 45 49 54 52 54 56 56 56 58 58 59 59 60 62 63 63 64 65 66 66 67 68 69 69 70 70 71 71 72 72 74 75 75 75 75 75 75 75 76 76 76 75 75 75 75 75 76 76 77 76 76 75 75 75 75 75 74 75 75 77 77 77 77 76 77 77 77 76 76 76 75 76 76 76 76 76 76 78 77 72 72 71
33 32 31 33 37 37 39 40 40 41 41 41 42 44 44 47 54 55 56 56 56 56 57 57 58 59 60 61 62 62 63 64 65 65 66 67 68 68 69 70 70 71 71 71 73 74 75 75 75 75 75 76 75 75 76 75 75 74 74 75 75 75 75 76 76 76 76 75 75 75 75 75 75 76 76 76 75 75 74 74 74 74 73 72 74 73 74 74 74 72 73 75 71 72 71 71 71
24 27 27 33 37 38 39 39 40 44 45 45 45 45 46 51 54 56 56 56 56 57 57 58 59 60 62 62 62 63 63 64 65 65 65 66 66 67 69 70 70 70 71 70 72 73 74 75 75 75 75 75 75 75 75 75 76 74 74 74 75 74 75 75 75 76 76 76 75 76 76 76 76 75 75 75 75 75 75 74 73 72 71 72 74 72 73 72 71 72 71 71 71 71 71 71 71
25 32 30 32 35 38 39 39 42 44 44 45 45 47 49 51 52 54 57 58 57 58 58 59 60 61 63 63 63 63 63 64 64 65 66 66 67 67 68 69 69 69 70 70 72 73 74 74 75 75 75 75 75 75 75 76 75 74 74 74 74 74 74 74 74 75 75 76 76 76 76 76 75 75 75 74 74 75 74 74 73 72 72 72 73 72 72 72 71 71 70 70 71 71 71 71 72
24 28 31 32 35 37 39 39 45 46 46 46 47 49 51 51 51 53 54 57 58 59 60 61 62 62 63 63 63 63 63 64 64 66 66 66 67 67 67 68 68 69 69 70 71 72 74 74 75 75 75 75 74 75 74 75 75 74 74 76 75 76 74 73 74 75 75 75 76 76 77 75 75 74 74 74 74 73 74 73 73 72 72 73 73 72 71 71 71 71 71 70 71 71 71 71 72
26 27 30 30 33 34 35 43 48 48 48 48 48 49 51 52 52 53 54 58 59 60 61 62 62 62 63 63 64 64 64 64 64 65 66 67 67 67 67 68 68 68 68 69 70 71 73 74 75 75 74 75 74 74 74 75 75 74 74 74 74 76 74 73 73 75 75 74 75 76 77 74 74 74 74 73 73 73 73 72 72 72 72 72 72 72 71 70 70 71 72 71 71 71 71 72 72
31 30 30 30 29 41 46 47 48 48 49 50 51 51 53 53 55 55 57 58 60 61 61 62 62 62 62 63 63 64 64 64 63 64 65 67 67 67 67 67 68 68 68 69 70 71 72 74 74 74 74 74 74 74 74 74 74 73 73 73 74 76 74 73 73 74 74 73 74 76 76 75 74 73 73 73 73 73 72 72 72 72 72 72 72 71 71 70 70 71 71 72 72 72 72 72 73
31 30 30 30 36 44 45 46 48 49 49 51 51 52 52 52 53 52 57 59 60 60 60 61 61 61 62 62 63 64 64 63 63 63 64 66 67 67 67 67 68 68 69 69 69 70 72 73 74 74 74 75 73 73 73 73 74 73 73 72 73 74 74 74 74 73 73 73 74 75 76 76 75 73 73 73 73 72 71 71 71 71 72 72 72 72 72 71 71 71 71 71 71 71 72 72 72
29 29 30 30 32 39 43 44 45 47 49 51 51 50 49 50 53 53 55 58 59 58 59 59 60 61 61 62 62 64 64 63 63 63 62 63 65 65 65 66 67 68 68 68 69 69 71 72 72 73 73 74 73 73 73 73 73 73 73 72 72 73 74 73 72 72 73 73 75 75 75 75 77 74 73 73 73 72 71 71 71 71 72 73 73 73 73 73 72 72 72 72 72 71 71 71 71
27 30 28 29 37 39 40 41 42 44 46 49 48 48 48 49 52 54 55 56 56 56 56 57 57 58 59 60 61 62 61 61 60 62 62 62 64 65 64 66 66 67 68 68 68 69 70 71 71 71 72 73 72 71 71 72 72 72 72 72 72 74 74 73 71 71 72 74 75 75 74 75 76 75 73 73 74 72 71 71 72 73 73 73 73 73 73 72 72 72 72 73 73 72 72 71 71
30 30 30 29 32 36 38 38 41 43 44 47 47 44 47 49 53 54 55 55 55 55 55 55 57 57 57 58 59 62 60 60 58 60 60 60 63 64 64 65 66 67 67 68 68 68 70 70 70 71 71 72 71 70 71 71 72 72 73 72 75 74 74 74 73 72 73 74 74 74 74 75 76 75 74 74 73 72 72 72 72 72 73 73 73 73 72 72 71 71 71 71 72 72 72 71 70
27 28 27 28 27 30 32 39 41 41 44 46 47 44 46 49 52 55 55 56 55 55 55 56 57 57 58 58 59 62 61 60 59 62 60 59 63 63 64 64 66 66 68 67 68 68 70 70 71 71 72 70 73 72 72 71 72 73 74 72 74 74 73 74 74 74 74 74 74 74 73 74 76 75 75 74 74 73 73 72 72 73 73 73 72 72 72 72 72 71 72 71 70 70 69 70 70
24 21 24 29 28 29 32 40 40 40 42 45 46 45 46 48 52 54 55 55 55 55 55 56 58 57 58 58 59 62 61 62 62 62 60 61 64 63 62 63 65 66 67 67 68 69 69 70 72 70 72 70 71 72 72 72 73 73 74 76 74 74 73 73 74 74 74 75 75 73 73 75 76 75 75 75 74 74 73 72 71 71 73 73 72 72 72 72 72 72 71 70 69 69 69 69 69
29 22 30 27 29 29 32 36 39 42 42 45 45 44 46 47 50 52 54 55 55 55 54 57 58 58 58 58 59 62 63 62 63 63 61 64 64 64 63 64 65 66 67 67 68 68 69 69 72 70 71 70 70 72 73 73 73 73 74 76 74 74 74 73 74 74 74 74 75 74 75 76 76 75 75 75 74 73 71 72 72 72 73 72 72 72 72 72 70 71 69 70 70 69 70 69 67
30 34 28 31 28 31 31 34 38 41 41 40 45 45 47 48 49 50 52 54 54 54 54 58 59 59 59 58 59 63 62 61 61 63 62 65 65 65 67 68 66 67 67 67 68 68 69 69 70 71 70 71 71 71 73 74 73 74 73 75 77 74 74 72 73 73 73 74 74 74 75 74 74 74 74 73 73 73 72 71 71 72 72 71 71 71 69 70 69 69 68 68 69 69 69 68 67
31 34 32 29 32 31 31 32 33 39 39 42 44 46 47 48 50 50 51 53 54 54 54 58 59 59 59 58 59 62 62 61 61 63 64 65 65 65 66 67 67 67 67 68 69 69 70 70 70 72 71 71 72 72 73 74 74 73 73 73 74 74 73 74 74 74 73 73 72 73 73 73 75 73 73 73 72 72 72 71 72 71 71 70 69 69 68 68 69 68 67 67 68 68 67 68 68
30 30 31 29 28 30 30 34 33 34 41 42 44 45 47 49 50 50 51 52 53 53 54 58 59 59 59 58 59 61 61 61 62 63 64 65 65 66 66 67 69 68 69 70 71 70 71 71 71 72 72 72 73 73 73 73 73 73 72 72 72 74 73 75 74 74 74 73 73 73 72 72 73 73 72 72 71 72 71 71 71 70 69 69 68 67 67 67 67 67 67 67 67 68 68 68 68
31 30 31 30 29 30 30 33 32 35 41 42 44 46 47 49 50 50 51 52 53 53 53 55 59 59 59 58 60 61 61 61 65 66 65 64 65 67 66 68 69 70 69 71 71 71 71 72 72 72 72 73 73 72 73 73 72 72 72 72 71 72 72 72 74 74 73 73 74 73 73 72 73 73 73 72 72 73 72 70 69 69 69 69 68 69 68 67 67 67 67 67 67 66 66 66 67
30 31 30 30 29 29 30 32 31 35 38 41 45 46 47 48 49 49 51 51 52 52 52 54 58 58 58 59 60 60 61 65 67 67 66 65 67 67 67 70 71 69 70 71 71 71 71 72 71 73 72 73 72 72 73 72 72 72 71 72 72 72 72 73 72 73 73 73 73 73 73 74 74 73 74 72 72 71 71 70 69 69 69 69 69 69 68 70 68 68 67 66 67 67 65 66 67
29 30 30 29 30 31 33 35 31 33 39 41 45 46 46 47 47 48 49 50 51 52 52 54 57 57 58 59 60 60 62 66 66 67 67 65 68 68 69 70 70 69 70 71 72 72 72 72 71 72 72 72 72 72 73 72 72 73 71 71 72 71 72 73 72 73 73 72 72 73 74 74 74 73 72 73 73 72 71 70 70 70 70 70 69 68 68 68 68 68 67 67 66 66 67 67 66
21 29 31 28 30 30 30 33 32 34 38 40 44 44 46 46 46 48 49 49 50 51 52 54 57 57 58 59 60 60 63 65 65 67 67 67 68 69 69 70 70 70 71 71 72 72 72 73 72 71 72 72 72 73 74 72 73 73 71 71 72 71 70 72 70 70 72 72 72 73 74 74 73 73 73 73 73 72 71 71 70 70 70 70 69 68 67 68 68 67 67 67 66 65 64 64 68
18 26 27 26 26 29 31 32 32 35 39 41 42 43 43 43 43 45 48 50 50 51 52 55 56 57 58 60 61 62 63 65 65 66 67 67 68 69 69 70 71 71 71 71 71 72 72 72 72 71 72 72 72 74 74 73 73 72 72 71 72 70 67 66 65 66 68 71 71 72 72 73 73 72 71 71 72 70 71 70 70 70 69 70 70 68 68 68 67 67 66 66 65 64 63 64 66
17 20 22 21 25 28 31 33 31 33 38 39 40 38 40 41 43 43 46 49 49 52 52 54 56 56 58 60 61 62 64 65 65 66 67 67 68 69 69 70 70 71 71 71 71 72 72 72 72 71 72 72 72 73 73 74 74 72 71 69 67 63 63 61 61 63 64 63 62 66 68 70 71 68 69 70 70 70 69 69 68 68 69 69 70 68 68 68 67 66 66 65 64 65 64 63 63
16 20 20 17 18 26 31 31 30 33 35 38 40 37 37 42 41 41 43 47 48 51 52 53 55 56 57 60 61 62 63 65 65 67 67 67 68 68 68 69 70 70 71 71 71 72 72 72 72 71 71 73 72 73 73 74 72 71 70 69 67 62 63 64 63 63 63 63 64 65 66 67 67 68 68 68 68 69 68 68 68 68 68 67 70 67 67 67 66 65 66 65 65 66 65 63 63
16 19 22 18 18 29 30 30 30 31 36 38 38 40 38 37 40 42 43 45 47 49 51 53 54 55 56 58 61 62 64 65 65 66 67 67 67 68 68 69 70 70 71 71 71 71 71 72 72 71 72 73 73 73 73 73 71 70 69 67 68 65 63 62 65 67 67 67 64 66 66 67 66 66 65 68 69 70 69 67 67 68 67 67 67 65 66 67 67 67 68 67 67 68 66 64 64
17 18 19 16 16 27 30 30 29 31 31 35 35 42 39 37 41 46 44 43 45 48 49 52 53 55 56 56 60 62 63 65 65 66 66 67 67 67 68 69 70 70 71 71 71 71 72 72 72 72 72 73 73 73 72 72 71 70 67 67 66 66 64 64 67 69 66 66 64 65 66 66 66 67 68 67 67 68 70 66 67 66 66 66 68 66 66 66 65 66 67 67 67 68 67 66 64
14 15 17 17 18 25 30 29 29 33 28 29 34 39 37 37 47 46 48 42 43 46 49 51 53 54 55 56 59 62 63 64 65 65 66 67 67 67 67 68 69 70 71 71 71 71 71 72 72 72 72 73 72 73 72 71 69 69 64 64 64 66 66 64 63 64 65 63 63 66 68 65 64 63 65 67 66 67 68 68 66 66 66 67 67 64 64 64 64 64 65 65 65 65 65 67 67
17 14 19 17 22 26 31 35 31 28 25 27 31 35 34 34 43 44 45 43 43 45 48 51 53 54 55 56 58 61 63 64 65 65 66 66 67 67 67 68 69 70 70 71 71 71 71 72 72 72 72 72 72 70 70 69 67 65 63 64 64 63 63 61 62 63 64 61 61 63 63 62 63 63 67 67 66 67 67 68 66 66 67 70 68 64 64 64 64 64 64 64 64 64 64 65 66
15 15 14 18 18 28 25 30 33 17 19 32 30 33 32 27 35 45 45 44 43 45 46 49 52 53 54 56 58 61 62 63 64 64 65 66 67 67 67 67 68 69 70 70 70 71 71 71 72 72 72 71 69 67 67 66 65 62 62 64 64 63 62 61 60 62 63 61 62 64 63 62 62 65 65 64 65 67 67 66 69 67 68 65 65 64 65 65 65 65 64 64 64 64 64 66 64
13 20 22 15 23 24 16 19 15 16 16 24 28 31 31 29 35 43 45 45 44 45 46 47 51 53 54 55 58 61 62 62 63 64 64 65 66 66 66 67 67 68 69 70 70 71 71 71 72 71 71 70 67 66 64 64 63 63 62 64 63 63 62 63 62 63 65 64 64 64 63 62 64 62 62 65 65 66 67 65 64 64 65 67 66 65 65 65 64 64 64 64 63 63 62 63 62
13 15 24 17 20 18 16 26 25 24 24 27 22 23 23 31 31 42 43 44 45 45 46 47 50 52 54 55 57 59 62 62 62 63 64 64 65 66 66 66 67 68 69 69 70 70 71 71 71 71 70 68 66 65 63 62 62 64 63 63 62 64 62 62 63 62 65 64 63 63 62 62 63 62 63 65 65 66 66 67 68 65 66 66 67 65 65 65 65 64 65 63 63 63 63 64 62
17 16 15 22 29 23 19 23 15 15 18 22 28 23 26 20 26 37 44 44 45 45 45 47 49 52 53 54 56 58 60 61 61 62 63 63 64 65 66 66 66 67 68 69 70 70 71 71 71 70 69 66 65 64 63 62 62 64 63 62 62 61 63 62 62 64 66 64 63 62 63 63 63 64 64 65 66 65 65 66 66 66 66 65 67 66 67 66 65 66 65 64 64 64 63 64 63
13 12 27 23 21 32 17 28 26 29 25 22 27 26 32 23 36 44 45 45 46 47 47 49 49 51 52 53 55 56 59 60 60 61 62 63 63 64 65 65 65 66 68 68 69 70 70 70 70 69 67 65 65 65 63 63 63 63 63 63 61 63 66 63 66 66 64 64 63 63 63 63 63 63 64 65 65 65 65 65 67 65 65 65 65 65 64 64 64 63 63 64 64 66 63 63 63
19 15 14 17 24 22 28 36 32 31 27 22 39 32 32 39 31 37 45 48 47 47 47 47 48 50 51 52 55 55 57 59 59 60 61 62 62 63 64 64 64 66 67 68 69 70 70 70 69 67 66 65 64 65 64 64 64 62 63 63 62 64 64 63 64 64 62 63 64 62 62 63 63 63 64 66 63 65 65 64 64 64 64 65 65 65 64 64 64 64 64 63 63 63 64 63 63
17 12 15 27 28 33 27 20 31 25 23 28 28 24 25 26 27 38 45 47 47 46 46 46 47 49 50 50 53 55 56 58 58 59 60 61 62 63 64 64 64 66 67 68 69 70 70 70 68 67 66 64 64 65 65 64 64 62 62 62 63 64 63 63 64 64 63 63 64 63 62 62 63 65 65 65 65 65 64 68 64 64 64 64 65 64 64 64 64 63 63 63 63 63 63 63 64
12 12 20 11 18 16 25 26 18 19 21 21 24 30 31 28 32 37 42 45 46 46 46 46 47 48 49 50 51 54 55 57 57 57 58 60 61 62 63 64 64 66 67 68 69 70 70 69 68 67 66 64 64 64 65 64 64 63 62 63 63 63 63 62 63 64 63 62 64 61 61 61 63 65 66 65 64 62 63 63 64 64 64 64 64 64 64 64 63 63 63 64 64 64 63 63 63
20 18 16 22 21 25 23 21 26 21 24 24 21 28 23 38 33 37 40 45 46 45 45 45 46 47 49 49 50 53 54 56 56 56 58 59 60 61 63 63 63 65 67 68 69 69 69 69 68 67 66 65 65 64 66 64 64 63 62 63 64 64 63 62 62 64 63 63 62 61 61 61 63 64 63 63 63 63 63 63 63 63 62 62 62 62 63 64 63 63 63 64 63 64 63 63 63
15 15 16 17 23 25 22 33 26 20 26 22 25 21 32 37 43 39 38 43 45 44 44 46 46 47 48 49 50 52 54 55 55 55 57 59 59 60 62 63 63 65 67 68 68 69 69 68 67 66 65 65 64 64 64 64 64 63 63 63 63 64 63 63 63 64 63 62 61 62 61 61 63 63 63 64 63 62 62 62 62 63 62 62 62 62 63 63 63 63 63 63 63 64 64 63 64
15 14 14 15 16 20 16 18 26 28 23 24 20 21 33 36 46 45 39 42 42 42 43 45 46 46 47 48 49 51 53 54 54 54 55 58 59 60 61 62 63 64 66 67 68 69 68 68 67 66 65 64 64 64 64 64 63 63 63 63 63 64 63 63 63 63 62 61 60 61 61 63 61 62 63 63 62 61 62 62 62 62 62 62 62 62 63 63 63 63 63 64 64 63 62 62 62